Terminal Aerodrome Forecast
Issued by NWS

Home | Current Version | Previous Version | Text Only | Print | Product List | Glossary On
Versions: 1 2 3 4 5 6 7 8 9 10 11 12 13 14 15 16 17 18 19 20 21 22 23 24 25 26 27 28 29 30 31 32 33 34 35 36 37 38 39 40 41 42 43 44 45 46 47 48 49 50
704
FTUS44 KBMX 191140
TAFASN
TAF
KASN 191140Z 1912/2012 32005G14KT P6SM SKC
     FM191400 33008G15KT P6SM SKC
     FM191800 34012G20KT P6SM SCT040
     FM200200 01008KT P6SM SKC=

USA.gov is the U.S. government's official web portal to all federal, state and local government web resources and services.